FW1558 Weather Reports


Display with metric or nautical units.
time (UTC)temp
F
wind
direction
speed
MPH
gust
MPH
rain 1hr
in
rain 24hr
in
rain mn
in
humidity
%
barometer
mb
20260506171551 47 69 3.0 5.0 0.09 0.61 0.50 92 1005.8
20260506170044 47 55 2.0 10.0 0.10 0.60 0.49 92 1005.7
20260506164553 48 25 3.0 11.0 0.09 0.56 0.46 92 1005.8
20260506163042 49 28 4.0 11.0 0.09 0.53 0.42 93 1005.5
20260506161536 49 56 3.0 12.0 0.10 0.52 0.41 92 1005.9
20260506160034 50 59 1.0 4.0 0.09 0.49 0.38 93 1005.7
20260506154531 49 65 2.0 5.0 0.09 0.48 0.37 92 1005.8
20260506153031 50 26 2.0 6.0 0.06 0.43 0.32 92 1006.0
20260506151527 50 51 0.0 6.0 0.06 0.42 0.31 93 1006.1
20260506150026 50 36 2.0 5.0 0.06 0.40 0.28 93 1006.1
20260506144530 50 55 2.0 5.0 0.08 0.39 0.28 93 1006.4
20260506143032 50 49 1.0 4.0 0.08 0.37 0.26 93 1006.4
20260506141522 50 80 0.0 6.0 0.09 0.36 0.25 93 1006.5
20260506140023 50 59 0.0 3.0 0.09 0.34 0.23 93 1006.3
20260506134520 50 14 1.0 5.0 0.09 0.31 0.20 92 1006.8
20260506133016 50 38 2.0 8.0 0.09 0.28 0.18 93 1006.5
20260506131518 50 355 1.0 4.0 0.08 0.27 0.16 93 1006.8
20260506130016 50 49 2.0 5.0 0.06 0.25 0.14 92 1006.9
20260506124511 50 49 2.0 5.0 0.03 0.22 0.11 92 1007.3
20260506123010 51 38 1.0 7.0 0.02 0.20 0.09 92 1007.2
20260506121507 51 30 3.0 5.0 0.01 0.19 0.08 92 1007.1
20260506120006 51 40 2.0 4.0 0.01 0.19 0.08 93 1007.5
20260506114505 51 72 1.0 4.0 0.01 0.19 0.08 93 1007.2
20260506113007 51 66 1.0 3.0 0.00 0.18 0.07 93 1007.1
20260506111502 52 45 0.0 2.0 0.00 0.18 0.07 93 1007.0
20260506110002 52 11 2.0 6.0 0.00 0.18 0.07 93 1007.0
20260506104601 52 44 3.0 6.0 0.00 0.18 0.07 93 1006.9
20260506103057 52 355 3.0 8.0 0.00 0.18 0.07 94 1006.9
20260506101555 52 54 2.0 6.0 0.00 0.18 0.07 94 1006.8
20260506100054 53 26 1.0 4.0 0.00 0.18 0.07 93 1007.1
20260506094551 53 22 2.0 4.0 0.00 0.18 0.07 93 1007.2
20260506093052 53 5 0.0 2.0 0.00 0.18 0.07 93 1007.3
20260506091549 53 5 0.0 2.0 0.00 0.18 0.07 93 1007.6
20260506090047 53 5 0.0 2.0 0.00 0.18 0.07 93 1007.4
20260506084546 53 303 1.0 5.0 0.00 0.18 0.07 93 1007.8
20260506083047 53 27 0.0 0.0 0.01 0.18 0.07 93 1007.7
20260506081549 53 26 0.0 3.0 0.01 0.18 0.07 93 1007.9
20260506073040 54 28 1.0 3.0 0.01 0.17 0.06 93 1007.2
20260506071547 54 342 1.0 4.0 0.01 0.17 0.06 92 1007.4
20260506061534 55 5 1.0 4.0 0.01 0.16 0.05 92 1007.5
20260506044525 56 312 1.0 4.0 0.04 0.12 0.01 90 1007.8
20260506043021 56 65 0.0 2.0 0.03 0.11 0.00 89 1007.9
20260506041521 56 48 2.0 5.0 0.05 0.11 0.00 90 1007.6
20260506040017 57 67 2.0 7.0 0.05 0.11 0.00 90 1008.0
20260506034514 57 264 0.0 3.0 0.02 0.08 0.08 89 1007.3
20260506033011 57 177 0.0 3.0 0.02 0.08 0.08 88 1006.8
20260506031609 57 242 2.0 4.0 0.00 0.06 0.06 86 1006.5
20260506030008 57 225 1.0 3.0 0.00 0.06 0.06 86 1006.3
20260506024507 58 225 1.0 4.0 0.00 0.06 0.06 85 1006.3
20260506023006 58 229 1.0 3.0 0.00 0.06 0.06 84 1006.4
20260506021506 59 229 0.0 2.0 0.00 0.06 0.06 83 1006.4
20260506020005 59 229 1.0 2.0 0.00 0.06 0.06 82 1006.4
20260506014502 60 229 1.0 5.0 0.00 0.06 0.06 81 1005.9
20260506013102 60 229 1.0 3.0 0.00 0.06 0.06 80 1005.5
20260506011601 61 248 2.0 3.0 0.00 0.06 0.06 80 1005.6
20260506004627 62 242 0.0 3.0 0.00 0.06 0.06 76 1005.1
20260506003059 62 242 0.0 5.0 0.00 0.06 0.06 74 1005.1
20260506001601 63 201 1.0 4.0 0.00 0.06 0.06 73 1005.1
20260506000057 64 189 0.0 3.0 0.00 0.06 0.06 74 1005.0
20260505234614 64 184 1.0 2.0 0.00 0.06 0.06 71 1004.9
20260505233056 65 185 0.0 3.0 0.00 0.06 0.06 68 1005.0
20260505231557 65 182 1.0 8.0 0.00 0.06 0.06 67 1004.6
20260505230056 65 242 1.0 4.0 0.00 0.06 0.06 65 1004.6
20260505224554 65 179 1.0 3.0 0.00 0.06 0.06 68 1004.7
20260505223102 66 182 2.0 5.0 0.00 0.06 0.06 67 1004.6
20260505221607 66 327 5.0 11.0 0.00 0.06 0.06 64 1003.8
20260505220130 67 190 4.0 10.0 0.00 0.06 0.06 63 1004.8
20260505214614 68 196 3.0 11.0 0.00 0.06 0.06 62 1004.3
20260505213053 67 142 1.0 6.0 0.00 0.06 0.06 64 1003.5
20260505211610 67 192 3.0 6.0 0.01 0.06 0.06 66 1003.4
20260505210052 66 147 4.0 10.0 0.01 0.06 0.06 67 1003.5
20260505204551 66 236 3.0 10.0 0.06 0.06 0.06 72 1003.5
20260505203053 64 218 5.0 11.0 0.06 0.06 0.06 74 1003.1
20260505201601 64 261 5.0 10.0 0.05 0.05 0.05 72 1003.0
20260505200101 66 233 11.0 20.0 0.05 0.05 0.05 69 1002.9
20260505194555 74 10 10.0 26.0 0.00 0.00 0.00 47 1003.5
20260505193045 75 289 5.0 17.0 0.00 0.00 0.00 42 1000.9
20260505191545 77 282 6.0 25.0 0.00 0.00 0.00 38 1001.0
20260505190050 79 265 8.0 15.0 0.00 0.00 0.00 35 1000.3
20260505184543 79 265 12.0 31.0 0.00 0.00 0.00 33 1000.6
20260505183048 80 253 8.0 19.0 0.00 0.00 0.00 34 1000.4
20260505181541 81 246 10.0 21.0 0.00 0.00 0.00 32 1000.6
20260505180038 80 276 13.0 30.0 0.00 0.00 0.00 33 1001.3
20260505174537 80 167 9.0 25.0 0.00 0.00 0.00 33 1000.9
20260505173043 80 217 11.0 25.0 0.00 0.00 0.00 34 1001.6